Terminal Aerodrome Forecast
Issued by NWS Charleston, WV

Current Version | Previous Version | Graphics & Text | Print | Product List | Glossary On
Versions: 1 2 3 4 5 6 7 8 9 10 11 12 13 14 15 16 17 18 19 20 21 22 23 24 25 26
000
FTUS41 KRLX 050856 AAB
TAFBKW
TAF AMD
KBKW 050856Z 0509/0606 00000KT 4SM BR BKN060
     FM051000 00000KT 2SM BR BKN025
     FM051300 VRB03KT 6SM BR OVC025
     FM051700 12004KT 3SM SHRA VCTS OVC035CB
     FM052300 09004KT 6SM SHRA VCTS OVC030CB
     FM060500 00000KT 4SM SHRA BR OVC025=

USA.gov is the U.S. government's official web portal to all federal, state and local government web resources and services.